Year,Month,Day,Hour,Minute,Value (Times are PST for temperature in C)
2017,04,16,00,00,3.70
2017,04,16,00,01,3.70
2017,04,16,00,02,3.70
2017,04,16,00,03,3.70
2017,04,16,00,04,3.70
2017,04,16,00,05,3.70
2017,04,16,00,06,3.80
2017,04,16,00,07,3.80
2017,04,16,00,08,3.80
2017,04,16,00,09,3.80
2017,04,16,00,10,3.80
2017,04,16,00,11,3.90
2017,04,16,00,12,3.90
2017,04,16,00,13,3.90
2017,04,16,00,14,3.90
2017,04,16,00,15,3.90
2017,04,16,00,16,3.90
2017,04,16,00,17,3.90
2017,04,16,00,18,3.90
2017,04,16,00,19,4.00
2017,04,16,00,20,4.00
2017,04,16,00,21,4.00
2017,04,16,00,22,4.00
2017,04,16,00,23,4.00
2017,04,16,00,24,4.00
2017,04,16,00,25,4.00
2017,04,16,00,26,4.00
2017,04,16,00,27,4.00
2017,04,16,00,28,4.00
2017,04,16,00,29,4.00
2017,04,16,00,30,4.00
2017,04,16,00,31,4.00
2017,04,16,00,32,4.00
2017,04,16,00,33,4.00
2017,04,16,00,34,4.00
2017,04,16,00,35,4.00
2017,04,16,00,36,4.00
2017,04,16,00,37,4.00
2017,04,16,00,38,4.00
2017,04,16,00,39,3.90
2017,04,16,00,40,3.90
2017,04,16,00,41,3.90
2017,04,16,00,42,3.90
2017,04,16,00,43,3.90
2017,04,16,00,44,3.90
2017,04,16,00,45,3.90
2017,04,16,00,46,3.80
2017,04,16,00,47,3.80
2017,04,16,00,48,3.80
2017,04,16,00,49,3.80
2017,04,16,00,50,3.80
2017,04,16,00,51,3.80
2017,04,16,00,52,3.80
2017,04,16,00,53,3.80
2017,04,16,00,54,3.80
2017,04,16,00,55,3.80
2017,04,16,00,56,3.80
2017,04,16,00,57,3.80
2017,04,16,00,58,3.80
2017,04,16,00,59,3.80
2017,04,16,01,00,3.80
2017,04,16,01,01,3.80
2017,04,16,01,02,3.80
2017,04,16,01,03,3.80
2017,04,16,01,04,3.80
2017,04,16,01,05,3.80
2017,04,16,01,06,3.80
2017,04,16,01,07,3.80
2017,04,16,01,08,3.80
2017,04,16,01,09,3.80
2017,04,16,01,10,3.80
2017,04,16,01,11,3.80
2017,04,16,01,12,3.80
2017,04,16,01,13,3.80
2017,04,16,01,14,3.80
2017,04,16,01,15,3.80
2017,04,16,01,16,3.80
2017,04,16,01,17,3.70
2017,04,16,01,18,3.70
2017,04,16,01,19,3.80
2017,04,16,01,20,3.70
2017,04,16,01,21,3.80
2017,04,16,01,22,3.80
2017,04,16,01,23,3.80
2017,04,16,01,24,3.80
2017,04,16,01,25,3.80
2017,04,16,01,26,3.90
2017,04,16,01,27,3.90
2017,04,16,01,28,3.90
2017,04,16,01,29,3.90
2017,04,16,01,30,3.90
2017,04,16,01,31,3.90
2017,04,16,01,32,3.90
2017,04,16,01,33,4.00
2017,04,16,01,34,4.00
2017,04,16,01,35,4.00
2017,04,16,01,36,4.00
2017,04,16,01,37,4.00
2017,04,16,01,38,4.00
2017,04,16,01,39,4.00
2017,04,16,01,40,4.00
2017,04,16,01,41,3.90
2017,04,16,01,42,3.90
2017,04,16,01,43,3.90
2017,04,16,01,44,3.90
2017,04,16,01,45,3.90
2017,04,16,01,46,3.90
2017,04,16,01,47,3.90
2017,04,16,01,48,3.90
2017,04,16,01,49,3.90
2017,04,16,01,50,3.90
2017,04,16,01,51,3.90
2017,04,16,01,52,3.90
2017,04,16,01,53,3.90
2017,04,16,01,54,3.90
2017,04,16,01,55,3.90
2017,04,16,01,56,3.90
2017,04,16,01,57,3.90
2017,04,16,01,58,3.90
2017,04,16,01,59,3.90
2017,04,16,02,00,3.90
2017,04,16,02,01,3.90
2017,04,16,02,02,3.90
2017,04,16,02,03,3.90
2017,04,16,02,04,3.90
2017,04,16,02,05,3.90
2017,04,16,02,06,3.80
2017,04,16,02,07,3.80
2017,04,16,02,08,3.80
2017,04,16,02,09,3.80
2017,04,16,02,10,3.80
2017,04,16,02,11,3.90
2017,04,16,02,12,3.90
2017,04,16,02,13,3.90
2017,04,16,02,14,3.90
2017,04,16,02,15,3.90
2017,04,16,02,16,3.90
2017,04,16,02,17,3.90
2017,04,16,02,18,3.90
2017,04,16,02,19,3.90
2017,04,16,02,20,3.90
2017,04,16,02,21,3.90
2017,04,16,02,22,3.90
2017,04,16,02,23,3.90
2017,04,16,02,24,3.90
2017,04,16,02,25,3.90
2017,04,16,02,26,3.90
2017,04,16,02,27,3.90
2017,04,16,02,28,3.90
2017,04,16,02,29,4.00
2017,04,16,02,30,4.00
2017,04,16,02,31,4.10
2017,04,16,02,32,4.10
2017,04,16,02,33,4.10
2017,04,16,02,34,4.10
2017,04,16,02,35,4.10
2017,04,16,02,36,4.10
2017,04,16,02,37,4.10
2017,04,16,02,38,4.10
2017,04,16,02,39,4.10
2017,04,16,02,40,4.20
2017,04,16,02,41,4.20
2017,04,16,02,42,4.10
2017,04,16,02,43,4.10
2017,04,16,02,44,4.10
2017,04,16,02,45,4.10
2017,04,16,02,46,4.10
2017,04,16,02,47,4.10
2017,04,16,02,48,4.10
2017,04,16,02,49,4.10
2017,04,16,02,50,4.00
2017,04,16,02,51,4.00
2017,04,16,02,52,4.00
2017,04,16,02,53,4.00
2017,04,16,02,54,4.00
2017,04,16,02,55,4.00
2017,04,16,02,56,4.00
2017,04,16,02,57,4.00
2017,04,16,02,58,4.00
2017,04,16,02,59,4.00
2017,04,16,03,00,3.90
2017,04,16,03,01,3.90
2017,04,16,03,02,3.90
2017,04,16,03,06,3.90
2017,04,16,03,07,3.90
2017,04,16,03,08,3.90
2017,04,16,03,09,3.90
2017,04,16,03,10,3.90
2017,04,16,03,11,3.90
2017,04,16,03,12,3.90
2017,04,16,03,13,3.90
2017,04,16,03,14,3.90
2017,04,16,03,15,4.00
2017,04,16,03,16,4.00
2017,04,16,03,17,4.00
2017,04,16,03,18,4.00
2017,04,16,03,19,4.00
2017,04,16,03,20,4.00
2017,04,16,03,21,4.00
2017,04,16,03,22,4.00
2017,04,16,03,23,4.00
2017,04,16,03,24,3.90
2017,04,16,03,25,3.90
2017,04,16,03,26,4.00
2017,04,16,03,27,3.90
2017,04,16,03,28,4.00
2017,04,16,03,29,3.90
2017,04,16,03,30,3.90
2017,04,16,03,31,3.90
2017,04,16,03,32,3.90
2017,04,16,03,33,3.90
2017,04,16,03,34,3.90
2017,04,16,03,35,3.90
2017,04,16,03,36,3.90
2017,04,16,03,37,3.90
2017,04,16,03,38,3.90
2017,04,16,03,39,3.90
2017,04,16,03,40,3.90
2017,04,16,03,41,3.90
2017,04,16,03,42,3.90
2017,04,16,03,43,3.90
2017,04,16,03,44,3.90
2017,04,16,03,45,3.90
2017,04,16,03,46,3.90
2017,04,16,03,47,3.90
2017,04,16,03,48,3.90
2017,04,16,03,49,3.90
2017,04,16,03,50,3.90
2017,04,16,03,51,3.90
2017,04,16,03,52,3.90
2017,04,16,03,53,3.90
2017,04,16,03,54,3.90
2017,04,16,03,55,3.90
2017,04,16,03,56,3.90
2017,04,16,03,57,3.90
2017,04,16,03,58,3.90
2017,04,16,03,59,3.90
2017,04,16,04,00,3.90
2017,04,16,04,01,3.90
2017,04,16,04,02,3.90
2017,04,16,04,03,3.90
2017,04,16,04,04,3.90
2017,04,16,04,05,3.90
2017,04,16,04,06,3.90
2017,04,16,04,07,4.00
2017,04,16,04,08,4.00
2017,04,16,04,09,4.00
2017,04,16,04,10,4.00
2017,04,16,04,11,4.00
2017,04,16,04,12,3.90
2017,04,16,04,13,3.90
2017,04,16,04,14,3.90
2017,04,16,04,15,3.90
2017,04,16,04,16,3.90
2017,04,16,04,17,3.90
2017,04,16,04,18,3.80
2017,04,16,04,19,3.80
2017,04,16,04,20,3.80
2017,04,16,04,21,3.80
2017,04,16,04,22,3.80
2017,04,16,04,23,3.80
2017,04,16,04,24,3.80
2017,04,16,04,25,3.80
2017,04,16,04,26,3.80
2017,04,16,04,27,3.80
2017,04,16,04,28,3.80
2017,04,16,04,29,3.80
2017,04,16,04,30,3.80
2017,04,16,04,31,3.80
2017,04,16,04,32,3.80
2017,04,16,04,33,3.80
2017,04,16,04,34,3.80
2017,04,16,04,35,3.80
2017,04,16,04,36,3.80
2017,04,16,04,37,3.80
2017,04,16,04,38,3.80
2017,04,16,04,39,3.80
2017,04,16,04,40,3.80
2017,04,16,04,41,3.80
2017,04,16,04,42,3.80
2017,04,16,04,43,3.80
2017,04,16,04,44,3.90
2017,04,16,04,45,3.90
2017,04,16,04,46,3.90
2017,04,16,04,47,3.90
2017,04,16,04,48,3.90
2017,04,16,04,49,3.90
2017,04,16,04,50,3.90
2017,04,16,04,51,3.90
2017,04,16,04,52,4.00
2017,04,16,04,53,4.00
2017,04,16,04,54,4.10
2017,04,16,04,55,4.10
2017,04,16,04,56,4.10
2017,04,16,04,57,4.20
2017,04,16,04,58,4.20
2017,04,16,04,59,4.20
2017,04,16,05,00,4.20
2017,04,16,05,01,4.20
2017,04,16,05,02,4.20
2017,04,16,05,03,4.20
2017,04,16,05,04,4.20
2017,04,16,05,05,4.20
2017,04,16,05,06,4.20
2017,04,16,05,07,4.20
2017,04,16,05,08,4.20
2017,04,16,05,09,4.20
2017,04,16,05,10,4.20
2017,04,16,05,11,4.20
2017,04,16,05,12,4.20
2017,04,16,05,13,4.30
2017,04,16,05,14,4.30
2017,04,16,05,15,4.30
2017,04,16,05,16,4.30
2017,04,16,05,17,4.40
2017,04,16,05,18,4.40
2017,04,16,05,19,4.40
2017,04,16,05,20,4.40
2017,04,16,05,21,4.40
2017,04,16,05,22,4.40
2017,04,16,05,23,4.40
2017,04,16,05,24,4.40
2017,04,16,05,25,4.40
2017,04,16,05,26,4.40
2017,04,16,05,27,4.40
2017,04,16,05,28,4.40
2017,04,16,05,29,4.40
2017,04,16,05,30,4.40
2017,04,16,05,31,4.40
2017,04,16,05,32,4.40
2017,04,16,05,33,4.50
2017,04,16,05,34,4.50
2017,04,16,05,35,4.50
2017,04,16,05,36,4.60
2017,04,16,05,37,4.60
2017,04,16,05,38,4.60
2017,04,16,05,39,4.70
2017,04,16,05,40,4.70
2017,04,16,05,41,4.80
2017,04,16,05,42,4.80
2017,04,16,05,43,4.90
2017,04,16,05,44,4.90
2017,04,16,05,45,4.90
2017,04,16,05,46,5.00
2017,04,16,05,47,5.00
2017,04,16,05,48,5.00
2017,04,16,05,49,5.00
2017,04,16,05,50,5.10
2017,04,16,05,51,5.10
2017,04,16,05,52,5.10
2017,04,16,05,53,5.10
2017,04,16,05,54,5.00
2017,04,16,05,55,5.00
2017,04,16,05,56,5.00
2017,04,16,05,57,4.90
2017,04,16,05,58,4.90
2017,04,16,05,59,4.90
2017,04,16,06,00,4.80
2017,04,16,06,01,4.80
2017,04,16,06,02,4.80
2017,04,16,06,03,4.80
2017,04,16,06,04,4.80
2017,04,16,06,05,4.80
2017,04,16,06,06,4.80
2017,04,16,06,07,4.80
2017,04,16,06,08,4.80
2017,04,16,06,09,4.80
2017,04,16,06,10,4.90
2017,04,16,06,11,4.90
2017,04,16,06,12,4.90
2017,04,16,06,13,5.00
2017,04,16,06,14,5.00
2017,04,16,06,15,5.00
2017,04,16,06,16,5.00
2017,04,16,06,17,5.00
2017,04,16,06,18,5.00
2017,04,16,06,19,5.00
2017,04,16,06,20,5.10
2017,04,16,06,21,5.10
2017,04,16,06,22,5.10
2017,04,16,06,23,5.10
2017,04,16,06,24,5.10
2017,04,16,06,25,5.10
2017,04,16,06,26,5.20
2017,04,16,06,27,5.20
2017,04,16,06,28,5.20
2017,04,16,06,29,5.20
2017,04,16,06,30,5.30
2017,04,16,06,31,5.30
2017,04,16,06,32,5.30
2017,04,16,06,33,5.30
2017,04,16,06,34,5.30
2017,04,16,06,35,5.40
2017,04,16,06,36,5.40
2017,04,16,06,37,5.40
2017,04,16,06,38,5.50
2017,04,16,06,39,5.50
2017,04,16,06,40,5.60
2017,04,16,06,41,5.60
2017,04,16,06,42,5.60
2017,04,16,06,43,5.60
2017,04,16,06,44,5.60
2017,04,16,06,45,5.70
2017,04,16,06,46,5.70
2017,04,16,06,47,5.70
2017,04,16,06,48,5.70
2017,04,16,06,49,5.70
2017,04,16,06,50,5.70
2017,04,16,06,51,5.70
2017,04,16,06,52,5.70
2017,04,16,06,53,5.70
2017,04,16,06,54,5.70
2017,04,16,06,55,5.70
2017,04,16,06,56,5.70
2017,04,16,06,57,5.70
2017,04,16,06,58,5.70
2017,04,16,06,59,5.70
2017,04,16,07,00,5.70
2017,04,16,07,01,5.70
2017,04,16,07,02,5.70
2017,04,16,07,03,5.70
2017,04,16,07,04,5.70
2017,04,16,07,05,5.70
2017,04,16,07,06,5.70
2017,04,16,07,07,5.70
2017,04,16,07,08,5.70
2017,04,16,07,09,5.70
2017,04,16,07,10,5.70
2017,04,16,07,11,5.70
2017,04,16,07,12,5.80
2017,04,16,07,13,5.80
2017,04,16,07,14,5.80
2017,04,16,07,15,5.70
2017,04,16,07,16,5.80
2017,04,16,07,17,5.80
2017,04,16,07,18,5.80
2017,04,16,07,19,5.80
2017,04,16,07,20,5.80
2017,04,16,07,21,5.80
2017,04,16,07,22,5.80
2017,04,16,07,23,5.80
2017,04,16,07,24,5.80
2017,04,16,07,25,5.80
2017,04,16,07,26,5.80
2017,04,16,07,27,5.80
2017,04,16,07,28,5.90
2017,04,16,07,29,5.90
2017,04,16,07,30,5.90
2017,04,16,07,31,5.90
2017,04,16,07,32,6.00
2017,04,16,07,33,6.00
2017,04,16,07,34,6.10
2017,04,16,07,35,6.10
2017,04,16,07,36,6.10
2017,04,16,07,37,6.10
2017,04,16,07,38,6.20
2017,04,16,07,39,6.20
2017,04,16,07,40,6.20
2017,04,16,07,41,6.30
2017,04,16,07,42,6.30
2017,04,16,07,43,6.30
2017,04,16,07,44,6.40
2017,04,16,07,45,6.40
2017,04,16,07,46,6.50
2017,04,16,07,47,6.50
2017,04,16,07,48,6.60
2017,04,16,07,49,6.60
2017,04,16,07,50,6.70
2017,04,16,07,51,6.70
2017,04,16,07,52,6.70
2017,04,16,07,53,6.80
2017,04,16,07,54,6.80
2017,04,16,07,55,6.90
2017,04,16,07,56,7.00
2017,04,16,07,57,7.00
2017,04,16,07,58,7.10
2017,04,16,07,59,7.10
2017,04,16,08,00,7.10
2017,04,16,08,01,7.20
2017,04,16,08,02,7.20
2017,04,16,08,03,7.30
2017,04,16,08,04,7.30
2017,04,16,08,05,7.30
2017,04,16,08,06,7.30
2017,04,16,08,07,7.30
2017,04,16,08,08,7.30
2017,04,16,08,09,7.30
2017,04,16,08,10,7.30
2017,04,16,08,11,7.30
2017,04,16,08,12,7.30
2017,04,16,08,13,7.30
2017,04,16,08,14,7.40
2017,04,16,08,15,7.40
2017,04,16,08,16,7.40
2017,04,16,08,17,7.40
2017,04,16,08,18,7.40
2017,04,16,08,19,7.40
2017,04,16,08,20,7.40
2017,04,16,08,21,7.40
2017,04,16,08,22,7.50
2017,04,16,08,23,7.40
2017,04,16,08,24,7.40
2017,04,16,08,25,7.40
2017,04,16,08,26,7.40
2017,04,16,08,27,7.40
2017,04,16,08,28,7.40
2017,04,16,08,29,7.40
2017,04,16,08,30,7.40
2017,04,16,08,31,7.40
2017,04,16,08,32,7.40
2017,04,16,08,33,7.40
2017,04,16,08,34,7.40
2017,04,16,08,35,7.40
2017,04,16,08,36,7.40
2017,04,16,08,37,7.40
2017,04,16,08,38,7.40
2017,04,16,08,39,7.40
2017,04,16,08,40,7.40
2017,04,16,08,41,7.40
2017,04,16,08,42,7.40
2017,04,16,08,43,7.40
2017,04,16,08,44,7.40
2017,04,16,08,45,7.40
2017,04,16,08,46,7.40
2017,04,16,08,47,7.40
2017,04,16,08,48,7.40
2017,04,16,08,49,7.40
2017,04,16,08,50,7.40
2017,04,16,08,51,7.40
2017,04,16,08,52,7.40
2017,04,16,08,53,7.40
2017,04,16,08,54,7.40
2017,04,16,08,55,7.40
2017,04,16,08,56,7.40
2017,04,16,08,57,7.40
2017,04,16,08,58,7.40
2017,04,16,08,59,7.40
2017,04,16,09,00,7.40
2017,04,16,09,01,7.40
2017,04,16,09,02,7.40
2017,04,16,09,03,7.40
2017,04,16,09,04,7.40
2017,04,16,09,05,7.40
2017,04,16,09,06,7.40
2017,04,16,09,07,7.50
2017,04,16,09,08,7.50
2017,04,16,09,09,7.50
2017,04,16,09,10,7.50
2017,04,16,09,11,7.50
2017,04,16,09,12,7.50
2017,04,16,09,13,7.50
2017,04,16,09,14,7.50
2017,04,16,09,15,7.50
2017,04,16,09,16,7.50
2017,04,16,09,17,7.60
2017,04,16,09,18,7.60
2017,04,16,09,19,7.60
2017,04,16,09,20,7.60
2017,04,16,09,21,7.60
2017,04,16,09,22,7.70
2017,04,16,09,23,7.70
2017,04,16,09,24,7.70
2017,04,16,09,25,7.80
2017,04,16,09,26,7.90
2017,04,16,09,27,7.90
2017,04,16,09,28,7.90
2017,04,16,09,29,8.00
2017,04,16,09,30,8.10
2017,04,16,09,31,8.10
2017,04,16,09,32,8.30
2017,04,16,09,33,8.40
2017,04,16,09,34,8.50
2017,04,16,09,35,8.60
2017,04,16,09,36,8.70
2017,04,16,09,37,8.90
2017,04,16,09,38,9.10
2017,04,16,09,39,9.30
2017,04,16,09,40,9.50
2017,04,16,09,41,9.50
2017,04,16,09,42,9.40
2017,04,16,09,43,9.40
2017,04,16,09,44,9.50
2017,04,16,09,45,9.60
2017,04,16,09,46,9.60
2017,04,16,09,47,9.70
2017,04,16,09,48,9.70
2017,04,16,09,49,9.80
2017,04,16,09,50,9.80
2017,04,16,09,51,9.80
2017,04,16,09,52,9.70
2017,04,16,09,53,9.70
2017,04,16,09,54,9.80
2017,04,16,09,55,9.90
2017,04,16,09,56,9.90
2017,04,16,09,57,10.00
2017,04,16,09,58,10.00
2017,04,16,09,59,10.00
2017,04,16,10,00,10.10
2017,04,16,10,01,10.10
2017,04,16,10,02,10.10
2017,04,16,10,03,10.10
2017,04,16,10,04,10.10
2017,04,16,10,05,10.10
2017,04,16,10,06,10.10
2017,04,16,10,07,10.10
2017,04,16,10,08,10.20
2017,04,16,10,09,10.20
2017,04,16,10,10,10.30
2017,04,16,10,11,10.40
2017,04,16,10,12,10.50
2017,04,16,10,13,10.40
2017,04,16,10,14,10.30
2017,04,16,10,15,10.30
2017,04,16,10,16,10.20
2017,04,16,10,17,10.20
2017,04,16,10,18,10.20
2017,04,16,10,19,10.20
2017,04,16,10,20,10.20
2017,04,16,10,21,10.20
2017,04,16,10,22,10.20
2017,04,16,10,23,10.30
2017,04,16,10,24,10.50
2017,04,16,10,25,10.60
2017,04,16,10,26,10.80
2017,04,16,10,27,10.80
2017,04,16,10,28,10.80
2017,04,16,10,29,10.80
2017,04,16,10,30,10.80
2017,04,16,10,31,10.80
2017,04,16,10,32,10.80
2017,04,16,10,33,10.60
2017,04,16,10,34,10.50
2017,04,16,10,35,10.40
2017,04,16,10,36,10.40
2017,04,16,10,37,10.40
2017,04,16,10,38,10.40
2017,04,16,10,39,10.40
2017,04,16,10,40,10.50
2017,04,16,10,41,10.60
2017,04,16,10,42,10.70
2017,04,16,10,43,10.70
2017,04,16,10,44,10.70
2017,04,16,10,45,10.50
2017,04,16,10,46,10.40
2017,04,16,10,47,10.30
2017,04,16,10,48,10.30
2017,04,16,10,49,10.20
2017,04,16,10,50,10.20
2017,04,16,10,51,10.10
2017,04,16,10,52,10.00
2017,04,16,10,53,10.00
2017,04,16,10,54,10.00
2017,04,16,10,55,10.00
2017,04,16,10,56,10.10
2017,04,16,10,57,10.20
2017,04,16,10,58,10.20
2017,04,16,10,59,10.20
2017,04,16,11,00,10.20
2017,04,16,11,01,10.20
2017,04,16,11,02,10.20
2017,04,16,11,03,10.30
2017,04,16,11,04,10.30
2017,04,16,11,05,10.30
2017,04,16,11,06,10.30
2017,04,16,11,07,10.40
2017,04,16,11,08,10.30
2017,04,16,11,09,10.20
2017,04,16,11,10,10.00
2017,04,16,11,11,9.90
2017,04,16,11,12,9.90
2017,04,16,11,13,10.00
2017,04,16,11,14,10.10
2017,04,16,11,15,10.20
2017,04,16,11,16,10.30
2017,04,16,11,17,10.40
2017,04,16,11,18,10.50
2017,04,16,11,19,10.60
2017,04,16,11,20,10.60
2017,04,16,11,21,10.70
2017,04,16,11,22,10.70
2017,04,16,11,23,10.70
2017,04,16,11,24,10.60
2017,04,16,11,25,10.60
2017,04,16,11,26,10.50
2017,04,16,11,27,10.40
2017,04,16,11,28,10.30
2017,04,16,11,29,10.20
2017,04,16,11,30,10.20
2017,04,16,11,31,10.20
2017,04,16,11,32,10.20
2017,04,16,11,33,10.20
2017,04,16,11,34,10.30
2017,04,16,11,35,10.30
2017,04,16,11,36,10.30
2017,04,16,11,37,10.30
2017,04,16,11,38,10.40
2017,04,16,11,39,10.40
2017,04,16,11,40,10.50
2017,04,16,11,41,10.60
2017,04,16,11,42,10.60
2017,04,16,11,43,10.70
2017,04,16,11,44,10.70
2017,04,16,11,45,10.70
2017,04,16,11,46,10.80
2017,04,16,11,47,10.80
2017,04,16,11,48,10.70
2017,04,16,11,49,10.60
2017,04,16,11,50,10.50
2017,04,16,11,51,10.50
2017,04,16,11,52,10.40
2017,04,16,11,53,10.40
2017,04,16,11,54,10.40
2017,04,16,11,55,10.50
2017,04,16,11,56,10.50
2017,04,16,11,57,10.60
2017,04,16,11,58,10.60
2017,04,16,11,59,10.60
2017,04,16,12,00,10.70
2017,04,16,12,01,10.70
2017,04,16,12,02,10.70
2017,04,16,12,03,10.70
2017,04,16,12,04,10.60
2017,04,16,12,05,10.60
2017,04,16,12,06,10.50
2017,04,16,12,07,10.50
2017,04,16,12,08,10.40
2017,04,16,12,09,10.40
2017,04,16,12,10,10.30
2017,04,16,12,11,10.30
2017,04,16,12,12,10.30
2017,04,16,12,13,10.30
2017,04,16,12,14,10.30
2017,04,16,12,15,10.30
2017,04,16,12,16,10.30
2017,04,16,12,17,10.40
2017,04,16,12,18,10.50
2017,04,16,12,19,10.60
2017,04,16,12,20,10.70
2017,04,16,12,21,10.80
2017,04,16,12,22,10.90
2017,04,16,12,23,10.90
2017,04,16,12,24,10.90
2017,04,16,12,25,10.90
2017,04,16,12,26,11.00
2017,04,16,12,27,11.00
2017,04,16,12,28,11.10
2017,04,16,12,29,11.20
2017,04,16,12,30,11.30
2017,04,16,12,31,11.50
2017,04,16,12,32,11.60
2017,04,16,12,33,11.60
2017,04,16,12,34,11.60
2017,04,16,12,35,11.60
2017,04,16,12,36,11.60
2017,04,16,12,37,11.60
2017,04,16,12,38,11.60
2017,04,16,12,39,11.60
2017,04,16,12,40,11.60
2017,04,16,12,41,11.60
2017,04,16,12,42,11.60
2017,04,16,12,43,11.60
2017,04,16,12,44,11.50
2017,04,16,12,45,11.40
2017,04,16,12,46,11.40
2017,04,16,12,47,11.30
2017,04,16,12,48,11.30
2017,04,16,12,49,11.20
2017,04,16,12,50,11.10
2017,04,16,12,51,11.00
2017,04,16,12,52,10.90
2017,04,16,12,53,10.80
2017,04,16,12,54,10.80
2017,04,16,12,55,10.80
2017,04,16,12,56,10.80
2017,04,16,12,57,10.90
2017,04,16,12,58,10.90
2017,04,16,12,59,10.90
2017,04,16,13,00,10.90
2017,04,16,13,01,10.80
2017,04,16,13,02,10.80
2017,04,16,13,03,10.80
2017,04,16,13,04,10.80
2017,04,16,13,05,10.90
2017,04,16,13,06,11.00
2017,04,16,13,07,11.00
2017,04,16,13,08,11.00
2017,04,16,13,09,11.00
2017,04,16,13,10,10.90
2017,04,16,13,11,10.90
2017,04,16,13,12,10.80
2017,04,16,13,13,10.90
2017,04,16,13,14,11.00
2017,04,16,13,15,11.00
2017,04,16,13,16,10.90
2017,04,16,13,17,11.00
2017,04,16,13,18,11.10
2017,04,16,13,19,11.20
2017,04,16,13,20,11.40
2017,04,16,13,21,11.50
2017,04,16,13,22,11.60
2017,04,16,13,23,11.80
2017,04,16,13,24,11.90
2017,04,16,13,25,11.90
2017,04,16,13,26,12.00
2017,04,16,13,27,12.10
2017,04,16,13,28,12.20
2017,04,16,13,29,12.30
2017,04,16,13,30,12.40
2017,04,16,13,31,12.60
2017,04,16,13,32,12.70
2017,04,16,13,33,12.80
2017,04,16,13,34,13.00
2017,04,16,13,35,13.00
2017,04,16,13,36,13.00
2017,04,16,13,37,13.00
2017,04,16,13,38,13.00
2017,04,16,13,39,13.00
2017,04,16,13,40,13.00
2017,04,16,13,41,13.10
2017,04,16,13,42,13.10
2017,04,16,13,43,13.10
2017,04,16,13,44,13.10
2017,04,16,13,45,13.10
2017,04,16,13,46,13.10
2017,04,16,13,47,13.20
2017,04,16,13,48,13.20
2017,04,16,13,49,13.10
2017,04,16,13,50,13.10
2017,04,16,13,51,13.10
2017,04,16,13,52,13.10
2017,04,16,13,53,13.10
2017,04,16,13,54,13.20
2017,04,16,13,55,13.20
2017,04,16,13,56,13.30
2017,04,16,13,57,13.30
2017,04,16,13,58,13.30
2017,04,16,13,59,13.30
2017,04,16,14,00,13.30
2017,04,16,14,01,13.30
2017,04,16,14,02,13.40
2017,04,16,14,03,13.40
2017,04,16,14,04,13.50
2017,04,16,14,05,13.60
2017,04,16,14,06,13.70
2017,04,16,14,07,13.80
2017,04,16,14,08,13.90
2017,04,16,14,09,14.00
2017,04,16,14,10,14.00
2017,04,16,14,11,14.10
2017,04,16,14,12,14.10
2017,04,16,14,13,14.20
2017,04,16,14,14,14.30
2017,04,16,14,15,14.30
2017,04,16,14,16,14.20
2017,04,16,14,17,14.10
2017,04,16,14,18,14.00
2017,04,16,14,19,14.00
2017,04,16,14,20,14.10
2017,04,16,14,21,14.20
2017,04,16,14,22,14.10
2017,04,16,14,23,14.10
2017,04,16,14,24,14.00
2017,04,16,14,25,14.00
2017,04,16,14,26,13.90
2017,04,16,14,27,13.90
2017,04,16,14,28,13.90
2017,04,16,14,29,13.90
2017,04,16,14,30,13.90
2017,04,16,14,31,13.90
2017,04,16,14,32,13.90
2017,04,16,14,33,13.90
2017,04,16,14,34,13.90
2017,04,16,14,35,13.90
2017,04,16,14,36,14.00
2017,04,16,14,37,14.10
2017,04,16,14,38,14.20
2017,04,16,14,39,14.20
2017,04,16,14,40,14.20
2017,04,16,14,41,14.30
2017,04,16,14,42,14.30
2017,04,16,14,43,14.30
2017,04,16,14,44,14.20
2017,04,16,14,45,14.00
2017,04,16,14,46,13.90
2017,04,16,14,47,13.90
2017,04,16,14,48,13.80
2017,04,16,14,49,13.70
2017,04,16,14,50,13.60
2017,04,16,14,51,13.70
2017,04,16,14,52,13.70
2017,04,16,14,53,13.80
2017,04,16,14,54,13.80
2017,04,16,14,55,13.90
2017,04,16,14,56,14.00
2017,04,16,14,57,14.10
2017,04,16,14,58,14.10
2017,04,16,14,59,14.10
2017,04,16,15,00,14.10
2017,04,16,15,01,14.20
2017,04,16,15,02,14.20
2017,04,16,15,03,14.20
2017,04,16,15,04,14.30
2017,04,16,15,05,14.30
2017,04,16,15,06,14.30
2017,04,16,15,07,14.40
2017,04,16,15,08,14.40
2017,04,16,15,09,14.40
2017,04,16,15,10,14.40
2017,04,16,15,11,14.40
2017,04,16,15,12,14.50
2017,04,16,15,13,14.50
2017,04,16,15,14,14.70
2017,04,16,15,15,14.80
2017,04,16,15,16,14.80
2017,04,16,15,17,14.90
2017,04,16,15,18,15.00
2017,04,16,15,19,15.10
2017,04,16,15,20,15.20
2017,04,16,15,21,15.10
2017,04,16,15,22,15.10
2017,04,16,15,23,15.10
2017,04,16,15,24,15.10
2017,04,16,15,25,15.20
2017,04,16,15,26,15.20
2017,04,16,15,27,15.20
2017,04,16,15,28,15.30
2017,04,16,15,29,15.30
2017,04,16,15,30,15.20
2017,04,16,15,31,15.20
2017,04,16,15,32,15.00
2017,04,16,15,33,15.00
2017,04,16,15,34,15.10
2017,04,16,15,35,15.10
2017,04,16,15,36,15.10
2017,04,16,15,37,15.10
2017,04,16,15,38,15.10
2017,04,16,15,39,15.00
2017,04,16,15,40,14.90
2017,04,16,15,41,14.70
2017,04,16,15,42,14.50
2017,04,16,15,43,14.40
2017,04,16,15,44,14.20
2017,04,16,15,45,14.10
2017,04,16,15,46,14.00
2017,04,16,15,47,13.90
2017,04,16,15,48,14.00
2017,04,16,15,49,14.00
2017,04,16,15,50,14.10
2017,04,16,15,51,14.10
2017,04,16,15,52,14.10
2017,04,16,15,53,14.10
2017,04,16,15,54,14.10
2017,04,16,15,55,14.20
2017,04,16,15,56,14.30
2017,04,16,15,57,14.40
2017,04,16,15,58,14.40
2017,04,16,15,59,14.50
2017,04,16,16,00,14.60
2017,04,16,16,01,14.60
2017,04,16,16,02,14.60
2017,04,16,16,03,14.70
2017,04,16,16,04,14.70
2017,04,16,16,05,14.60
2017,04,16,16,06,14.60
2017,04,16,16,07,14.60
2017,04,16,16,08,14.50
2017,04,16,16,09,14.40
2017,04,16,16,10,14.50
2017,04,16,16,11,14.50
2017,04,16,16,12,14.60
2017,04,16,16,13,14.60
2017,04,16,16,14,14.70
2017,04,16,16,15,14.80
2017,04,16,16,16,14.90
2017,04,16,16,17,15.00
2017,04,16,16,18,15.10
2017,04,16,16,19,15.10
2017,04,16,16,20,15.00
2017,04,16,16,21,15.00
2017,04,16,16,22,15.10
2017,04,16,16,23,15.10
2017,04,16,16,24,15.20
2017,04,16,16,25,15.20
2017,04,16,16,26,15.30
2017,04,16,16,27,15.30
2017,04,16,16,28,15.30
2017,04,16,16,29,15.30
2017,04,16,16,30,15.30
2017,04,16,16,31,15.30
2017,04,16,16,32,15.30
2017,04,16,16,33,15.30
2017,04,16,16,34,15.40
2017,04,16,16,35,15.30
2017,04,16,16,36,15.30
2017,04,16,16,37,15.20
2017,04,16,16,38,15.20
2017,04,16,16,39,15.10
2017,04,16,16,40,15.10
2017,04,16,16,41,15.10
2017,04,16,16,42,15.10
2017,04,16,16,43,15.00
2017,04,16,16,44,15.10
2017,04,16,16,45,15.00
2017,04,16,16,46,14.90
2017,04,16,16,47,14.90
2017,04,16,16,48,14.90
2017,04,16,16,49,14.80
2017,04,16,16,50,14.70
2017,04,16,16,51,14.70
2017,04,16,16,52,14.70
2017,04,16,16,53,14.70
2017,04,16,16,54,14.70
2017,04,16,16,55,14.60
2017,04,16,16,56,14.60
2017,04,16,16,57,14.60
2017,04,16,16,58,14.60
2017,04,16,16,59,14.60
2017,04,16,17,00,14.60
2017,04,16,17,01,14.70
2017,04,16,17,02,14.80
2017,04,16,17,03,14.80
2017,04,16,17,04,14.90
2017,04,16,17,05,15.00
2017,04,16,17,06,15.10
2017,04,16,17,07,15.10
2017,04,16,17,08,15.10
2017,04,16,17,09,15.10
2017,04,16,17,10,15.10
2017,04,16,17,11,15.10
2017,04,16,17,12,15.10
2017,04,16,17,13,15.20
2017,04,16,17,14,15.20
2017,04,16,17,15,15.20
2017,04,16,17,16,15.20
2017,04,16,17,17,15.20
2017,04,16,17,18,15.20
2017,04,16,17,19,15.20
2017,04,16,17,20,15.10
2017,04,16,17,21,15.10
2017,04,16,17,22,15.00
2017,04,16,17,23,15.00
2017,04,16,17,24,15.00
2017,04,16,17,25,15.00
2017,04,16,17,26,15.00
2017,04,16,17,27,15.00
2017,04,16,17,28,15.00
2017,04,16,17,29,15.00
2017,04,16,17,30,14.90
2017,04,16,17,31,14.90
2017,04,16,17,32,14.80
2017,04,16,17,33,14.80
2017,04,16,17,34,14.80
2017,04,16,17,35,14.70
2017,04,16,17,36,14.60
2017,04,16,17,37,14.60
2017,04,16,17,38,14.60
2017,04,16,17,39,14.50
2017,04,16,17,40,14.50
2017,04,16,17,41,14.40
2017,04,16,17,42,14.40
2017,04,16,17,43,14.40
2017,04,16,17,44,14.40
2017,04,16,17,45,14.30
2017,04,16,17,46,14.30
2017,04,16,17,47,14.20
2017,04,16,17,48,14.20